Погода в Буаке

Кот-д’Ивуар     7°41′35″N   5°01′41″W
темп.,
°C
ветер,
м/с
пор.,
м/с
влажн.,
%
обл.,
%
осадки,
мм/ч
давл.,
гПа
погр.,
м
1 марта, пн
пн100:00+27ююз486744 0.1 1009389
03:00+26юз377298 0.0 1007393
06:00+25ююз267798 0.0 1008310
09:00+29юз236122 0.0 1010643
12:00+36зюз123612 0.0 10091826
15:00+35всв013564 0.0 10052279
18:00+34ююз233877 0.0 1005672
21:00+30ююв584713 0.0 1008474
2 марта, вт
вт200:00+27ююз486723 0.0 1009295
03:00+25ююз3877100 0.0 1007419
06:00+24юз368758 0.0 1008368
09:00+27юз347251 0.0 1011668
12:00+35юз224346 0.0 10091344
15:00+38в242623 0.0 10062946
18:00+35юв343042 0.0 1005830
21:00+30ю59480 0.0 1008525
3 марта, ср
ср300:00+27ююз49730 0.0 1009510
03:00+25юз38817 0.0 1008551
06:00+24юз378320 0.0 1009486
09:00+28юз466513 0.0 1011821
12:00+33юз334514 0.0 10101413
15:00+38ююз132832 0.0 10062759
18:00+36ю123022 0.0 1006741
21:00+32ююз364128 0.0 1008240
4 марта, чт
чт400:00+28юз5116722 0.0 1009638
03:00+26юз498027 0.0 1007630
06:00+26юз477861 0.0 1009726
09:00+27зюз4671100 0.0 1010777
12:00+33юз444890 0.0 10091147
15:00+37ююз323488 0.0 10052356
18:00+34ююв123776 0.0 1005677
21:00+29всв365737 1.8 1008252
5 марта, пт
пт500:00+27ююз497069 4.9 1009459
03:00+25ююз4981100 0.0 1007593
06:00+24ююз378893 0.0 1007546
09:00+26юз477896 0.0 1010728
12:00+31юз565988 0.1 10091002
15:00+33ююз44494 0.0 10051436
18:00+31ю45559 0.0 10061019
21:00+28ю48630 0.0 1009397